EA3BAX-1 Weather Reports


time (UTC)temp
F
wind
direction
speed
knots
gust
knots
rain 1hr
in
rain 24hr
in
rain mn
in
humidity
%
barometer
mb
20260509224117 69 0 2.6 4.3 0.00 0.00 0.00 100 1009.8
20260509204116 66 0 1.7 3.5 0.00 0.00 0.00 100 1008.8
20260509203117 66 0 2.6 3.5 0.00 0.00 0.00 100 1008.8
20260509181116 64 90 7.8 8.7 0.00 0.00 0.00 100 1005.8
20260509180116 64 90 5.2 6.1 0.00 0.00 0.00 100 1006.8
20260509175136 64 0 2.6 6.1 0.00 0.00 0.00 100 1006.8
20260509174116 65 0 3.5 7.8 0.00 0.00 0.00 100 1006.8
20260509173117 65 0 2.6 4.3 0.00 0.00 0.00 100 1007.8
20260509172115 64 90 3.5 4.3 0.00 0.00 0.00 100 1008.8
20260509171115 64 0 4.3 4.3 0.00 0.00 0.00 100 1008.8
20260509170115 63 0 0.0 0.0 0.00 0.00 0.00 100 1008.8
20260509165135 63 225 2.6 3.5 0.00 0.00 0.00 100 1008.8
20260509164115 63 225 3.5 4.3 0.00 0.00 0.00 100 1008.8
20260509163135 62 225 2.6 4.3 0.00 0.00 0.00 100 1008.8
20260509162115 62 0 1.7 4.3 0.00 0.00 0.00 99 1007.8
20260509161115 63 90 3.5 7.0 0.00 0.00 0.00 99 1007.8
20260509160115 63 0 0.0 7.0 0.00 0.00 0.00 99 1007.8
20260509155115 64 90 4.3 8.7 0.00 0.00 0.00 100 1006.8
20260509154115 65 90 3.5 9.6 0.00 0.00 0.00 100 1006.8
20260509153115 64 90 1.7 9.6 0.00 0.00 0.00 100 1006.8
20260509152115 64 0 0.0 7.8 0.00 0.00 0.00 99 1007.8
20260509151115 64 90 2.6 5.2 0.00 0.00 0.00 96 1007.8
20260509150116 64 90 3.5 4.3 0.00 0.00 0.00 92 1008.8
20260509145115 64 90 3.5 4.3 0.00 0.00 0.00 92 1008.8
20260509144116 65 90 1.7 2.6 0.00 0.00 0.00 89 1008.8
20260509143115 66 180 0.0 2.6 0.00 0.00 0.00 83 1009.8
20260509142117 67 180 1.7 3.5 0.00 0.00 0.00 77 1008.8
20260509120134 68 90 0.0 4.3 0.00 0.00 0.00 78 1009.8
20260509115114 69 90 4.3 6.1 0.00 0.00 0.00 77 1009.8
20260509114114 69 90 4.3 7.0 0.00 0.00 0.00 76 1009.8
20260509113114 69 90 4.3 6.1 0.00 0.00 0.00 77 1009.8
20260509112115 69 90 5.2 7.0 0.00 0.00 0.00 78 1009.8
20260509111114 68 0 1.7 7.8 0.00 0.00 0.00 79 1009.8
20260509110134 68 180 1.7 6.1 0.00 0.00 0.00 80 1009.8
20260509105115 68 90 5.2 8.7 0.00 0.00 0.00 79 1009.8
20260509104134 69 90 6.1 7.8 0.00 0.00 0.00 80 1009.8
20260509103114 68 90 7.0 7.0 0.00 0.00 0.00 79 1009.8